Temp
41 31 25 29 32 32 28 23 22 30 37 29 28 29 34 39 36 32 33 35 36 39 43 44 46 45 44 43 44 43 42 43 43 41 40 40 40 44 44 47 49 51 52 53
33 25 33 37 36 31 27 22 20 27 33 30 27 27 34 38 36 36 36 34 35 37 40 43 43 43 42 41 42 42 43 43 43 42 42 41 40 41 43 45 47 48 51 53
27 31 38 36 31 26 25 20 20 19 27 30 25 21 28 35 37 38 36 35 38 37 37 40 41 40 41 39 40 42 42 42 42 42 42 42 41 41 43 45 46 48 52 52
29 37 33 30 28 27 18 29 26 23 19 7 23 5 25 30 31 34 34 34 34 36 38 39 39 39 39 40 41 41 41 41 43 42 40 39 38 37 41 44 47 49 51 51
25 27 26 27 26 29 23 29 25 24 15 10 17 4 19 30 28 31 32 33 34 36 38 36 37 38 39 39 38 39 40 40 41 40 40 39 38 39 41 42 45 47 49 51
29 36 29 26 30 31 31 25 25 23 16 1 9 8 12 20 25 29 32 33 34 35 36 37 38 38 37 37 37 37 38 39 40 40 40 39 38 38 38 41 43 45 48 50
29 27 30 32 24 29 23 17 5 3 3 3 16 12 12 26 31 31 29 31 33 34 33 33 33 33 34 34 35 36 37 36 39 39 39 39 39 39 39 40 41 44 47 50
16 18 23 30 19 11 17 11 -2 -9 3 8 19 1 14 31 33 34 34 33 33 33 33 32 32 32 33 34 34 34 35 35 37 38 38 39 40 40 40 41 42 43 47 50
12 21 28 28 28 21 17 8 18 3 9 2 12 16 22 31 30 30 29 32 30 31 31 30 31 31 32 32 33 33 34 35 36 36 37 38 40 40 40 41 43 44 47 51
17 6 26 27 28 26 17 21 5 2 -8 -5 10 4 10 15 20 24 27 27 29 29 29 30 30 30 31 32 33 34 34 34 35 36 37 38 39 40 40 41 42 44 47 49
16 11 19 25 18 8 14 6 10 8 4 -7 -4 4 13 12 12 21 24 26 26 27 27 27 28 30 31 32 32 32 32 33 34 35 36 37 38 40 40 40 43 44 47 49
19 9 7 16 16 17 16 8 7 0 -2 2 -3 5 22 13 24 24 23 24 26 26 26 27 28 29 29 28 29 30 31 31 33 35 36 36 37 39 39 40 42 44 46 49
17 11 8 10 12 17 8 11 7 8 6 -2 -7 2 20 26 23 24 22 24 23 24 24 26 27 25 26 26 27 28 30 30 33 34 35 35 36 38 39 40 43 45 46 48
28 15 10 10 15 14 9 12 7 9 5 -2 6 12 18 20 19 21 22 23 22 22 23 23 23 24 25 25 26 27 29 31 32 33 34 34 35 37 39 41 43 45 47 48
20 9 18 20 22 20 16 13 8 6 11 -1 12 9 14 18 18 21 22 22 21 20 21 23 21 22 24 24 25 26 28 30 31 32 33 34 36 38 40 41 43 45 47 48
21 11 16 11 20 12 7 12 10 10 9 8 10 8 19 18 22 19 20 20 18 19 21 21 21 22 22 23 25 26 28 30 32 32 33 35 36 38 40 41 43 45 47 49
17 14 10 9 20 17 6 9 5 2 0 4 6 15 19 16 16 18 19 19 19 20 19 20 21 21 22 23 25 25 27 30 32 33 34 35 37 39 40 42 43 45 47 49
18 15 16 9 16 4 12 12 9 9 11 13 13 14 14 14 18 20 21 21 19 19 20 20 21 22 24 25 25 27 29 30 32 33 35 37 38 40 42 42 42 46 47 49
24 18 10 4 8 17 14 16 9 4 10 6 6 8 15 18 18 20 26 23 20 20 21 21 22 23 23 24 27 29 31 32 33 34 36 38 39 41 42 42 43 47 48 50
25 21 11 11 4 6 11 22 22 13 -0 18 8 14 14 15 9 15 21 21 21 21 21 22 23 23 23 26 29 32 33 33 32 35 37 40 42 43 42 43 45 49 50 51
9 8 7 11 9 16 21 22 22 8 11 19 12 12 14 12 15 18 21 21 22 21 21 23 23 22 23 27 29 35 35 33 35 38 40 41 43 44 43 44 47 50 51 52
12 9 10 11 5 7 24 23 15 16 20 16 14 13 11 17 18 18 19 19 20 20 21 22 21 21 24 26 28 30 33 37 38 39 40 41 45 45 46 45 48 49 51 51
9 17 16 19 20 24 23 25 26 24 18 17 11 15 14 17 17 18 17 18 19 20 21 22 21 21 25 26 27 27 31 38 40 40 40 42 43 45 47 47 47 48 51 51
16 17 12 16 22 23 25 25 24 23 20 21 17 14 18 16 17 17 18 18 19 20 21 21 21 21 23 26 27 28 32 35 38 38 39 42 42 43 46 49 49 50 51 50
18 17 16 16 22 25 24 21 23 24 23 21 21 19 17 16 18 17 17 18 18 20 21 20 20 22 23 26 26 28 31 36 36 35 34 36 40 44 44 47 49 50 51 51
18 15 15 16 25 21 21 22 24 18 17 18 14 17 18 17 16 17 16 18 19 20 20 20 21 23 24 26 26 27 30 34 37 38 37 38 43 45 47 46 45 45 47 47
MSLP
1023.94 1024.60 1025.58 1025.94 1026.58 1026.87 1026.87 1026.50 1025.43 1024.14 1023.18 1022.95 1022.38 1021.11 1020.13 1019.46 1019.82 1020.52 1020.98 1021.16 1021.34 1021.54 1021.49 1021.35 1021.25 1021.20 1021.14 1020.99 1020.81 1020.43 1020.22 1019.90 1019.61 1019.36 1019.04 1018.62 1018.21 1017.21 1016.29 1015.63 1015.14 1014.81 1014.82 1013.21
1024.84 1026.17 1027.01 1027.00 1027.06 1027.25 1027.47 1027.06 1025.86 1024.69 1024.25 1024.17 1022.47 1020.80 1019.82 1019.48 1019.66 1020.42 1020.89 1021.15 1021.56 1021.73 1021.44 1021.29 1021.24 1021.14 1021.10 1020.86 1020.66 1020.39 1020.09 1019.82 1019.61 1019.37 1019.06 1018.73 1018.60 1018.07 1018.04 1018.15 1016.71 1016.14 1014.82 1013.57
1026.56 1027.44 1027.34 1027.19 1027.27 1027.73 1027.66 1027.28 1026.74 1026.55 1025.15 1024.12 1023.18 1021.14 1019.76 1019.54 1019.87 1020.33 1020.92 1021.35 1021.56 1021.71 1021.58 1021.29 1021.24 1021.22 1020.84 1020.73 1020.53 1020.23 1019.85 1019.51 1019.29 1019.16 1018.86 1018.49 1018.08 1017.55 1017.04 1016.07 1014.92 1015.20 1015.49 1014.15
1027.71 1027.83 1028.00 1028.06 1028.24 1028.69 1027.88 1027.02 1027.04 1026.63 1026.63 1026.16 1024.92 1023.61 1020.96 1020.11 1020.30 1020.43 1020.79 1021.10 1021.51 1021.85 1021.78 1021.55 1021.30 1021.06 1021.09 1020.52 1020.05 1019.79 1019.43 1019.11 1018.92 1018.74 1018.56 1018.38 1018.11 1017.65 1017.19 1016.31 1015.29 1015.63 1014.35 1013.09
1028.52 1028.55 1028.66 1028.96 1029.35 1029.40 1028.71 1027.40 1026.82 1026.46 1026.99 1027.22 1025.70 1025.14 1021.55 1020.38 1020.31 1020.39 1020.94 1021.40 1021.86 1022.07 1021.77 1021.63 1021.26 1021.02 1020.77 1020.34 1019.86 1019.38 1019.03 1018.67 1018.34 1018.23 1018.19 1017.90 1017.66 1017.37 1017.29 1016.99 1016.66 1015.26 1014.82 1013.60
1028.77 1029.14 1029.54 1029.98 1029.52 1029.32 1029.38 1027.86 1026.28 1026.42 1027.42 1027.93 1026.66 1025.75 1022.56 1021.11 1020.74 1020.71 1021.18 1021.71 1022.08 1021.88 1021.95 1021.67 1021.10 1020.63 1020.29 1020.03 1019.58 1018.99 1018.54 1018.12 1017.81 1017.58 1017.53 1017.21 1016.95 1016.72 1016.34 1015.96 1015.49 1014.79 1014.18 1013.89
1029.54 1029.59 1029.75 1030.20 1029.98 1029.73 1030.45 1029.51 1029.47 1029.23 1028.94 1028.31 1027.18 1026.33 1023.09 1021.44 1020.97 1021.25 1021.84 1022.19 1022.13 1022.24 1021.76 1021.45 1020.87 1020.39 1019.90 1019.42 1019.04 1018.58 1017.92 1017.34 1017.10 1016.71 1016.50 1016.29 1016.03 1016.01 1015.67 1015.25 1014.79 1014.94 1013.76 1013.69
1032.05 1030.12 1030.57 1030.81 1031.55 1032.16 1032.10 1032.51 1033.82 1034.61 1032.20 1030.13 1027.64 1026.41 1022.88 1021.07 1021.21 1021.64 1022.14 1022.31 1022.14 1021.68 1021.76 1021.27 1020.66 1020.02 1019.37 1018.79 1018.35 1017.90 1017.36 1016.62 1016.24 1015.92 1015.65 1015.46 1015.16 1015.11 1014.95 1014.80 1014.57 1013.52 1013.49 1012.86
1034.18 1031.97 1031.43 1031.53 1031.98 1032.88 1033.15 1033.85 1034.83 1035.18 1033.89 1032.56 1028.02 1025.19 1023.00 1022.59 1022.56 1022.44 1022.54 1022.19 1022.12 1021.75 1021.32 1020.70 1020.12 1019.44 1018.66 1018.14 1017.63 1017.06 1016.44 1015.86 1015.32 1015.00 1014.66 1014.52 1014.24 1014.06 1014.10 1014.47 1014.23 1014.03 1013.62 1013.17
1035.71 1034.80 1031.84 1032.02 1032.39 1033.28 1034.11 1034.98 1035.49 1036.24 1036.00 1033.86 1029.08 1027.01 1024.82 1024.10 1023.60 1023.39 1023.22 1022.70 1021.94 1021.45 1020.60 1019.90 1019.18 1018.40 1017.65 1016.90 1016.31 1015.84 1015.31 1014.78 1014.34 1013.92 1013.58 1013.30 1013.33 1013.05 1013.04 1013.26 1013.38 1013.28 1013.09 1012.73
1036.16 1036.31 1033.14 1032.45 1032.92 1033.85 1034.65 1035.54 1036.28 1036.90 1037.21 1036.58 1033.37 1028.11 1025.28 1024.71 1024.39 1023.92 1023.10 1022.46 1021.62 1020.35 1019.57 1018.91 1018.13 1017.26 1016.28 1015.53 1014.93 1014.46 1014.11 1013.60 1012.99 1012.55 1012.25 1012.11 1012.12 1011.96 1012.04 1012.00 1011.99 1012.07 1011.98 1011.68
1036.39 1036.56 1035.18 1033.78 1033.98 1034.35 1035.00 1035.78 1036.93 1038.16 1037.68 1037.36 1035.51 1029.58 1025.85 1025.09 1024.43 1023.96 1023.07 1021.96 1020.90 1020.26 1018.96 1017.89 1016.99 1015.98 1015.15 1014.52 1013.85 1013.17 1012.62 1012.16 1011.64 1011.20 1010.91 1010.86 1011.01 1010.88 1010.94 1010.79 1011.06 1011.09 1010.98 1010.95
1036.45 1036.47 1035.60 1034.24 1034.96 1034.91 1035.28 1035.66 1036.63 1037.49 1037.79 1037.16 1036.23 1029.32 1026.10 1025.23 1025.07 1024.51 1023.13 1021.55 1020.51 1019.17 1017.78 1016.82 1015.96 1015.13 1014.23 1013.31 1012.34 1011.55 1010.95 1010.56 1010.16 1009.83 1009.49 1009.45 1009.64 1009.65 1009.77 1009.85 1009.91 1010.33 1010.34 1010.02
1035.96 1036.23 1035.98 1035.35 1034.10 1033.94 1034.72 1035.42 1036.33 1037.35 1037.78 1035.69 1033.20 1028.47 1026.20 1025.99 1025.16 1023.56 1022.16 1021.16 1020.21 1018.93 1017.38 1016.10 1015.01 1014.17 1013.10 1012.03 1010.93 1010.01 1009.23 1008.71 1008.49 1008.25 1007.98 1007.86 1008.09 1008.45 1008.67 1009.07 1009.12 1009.58 1009.65 1009.95
1035.90 1036.03 1035.06 1033.94 1033.03 1033.31 1033.89 1034.47 1035.49 1036.35 1035.23 1035.37 1031.08 1030.82 1028.01 1026.88 1025.56 1024.06 1022.49 1020.95 1019.33 1017.61 1016.51 1015.35 1014.17 1012.58 1011.41 1010.30 1009.14 1008.25 1007.54 1006.95 1006.79 1006.58 1006.41 1006.39 1007.05 1007.54 1007.60 1008.03 1008.15 1008.29 1008.41 1008.79
1035.83 1035.64 1034.81 1032.81 1031.51 1032.37 1033.08 1033.16 1034.06 1034.65 1034.58 1033.91 1032.30 1030.41 1028.73 1027.34 1026.06 1024.28 1022.95 1020.93 1019.31 1017.35 1015.78 1014.31 1012.97 1011.51 1010.07 1008.83 1007.43 1006.48 1005.78 1005.20 1005.01 1004.97 1005.00 1005.50 1005.93 1006.27 1006.42 1006.90 1007.40 1007.93 1007.82 1008.00
1035.68 1035.86 1035.37 1033.00 1031.53 1031.68 1031.98 1031.28 1032.35 1033.10 1032.89 1032.95 1031.72 1029.39 1028.37 1027.62 1026.06 1024.33 1022.19 1020.97 1019.07 1017.21 1015.53 1013.69 1012.17 1010.33 1008.79 1007.33 1006.06 1004.76 1004.02 1003.64 1003.38 1003.39 1003.82 1004.17 1004.58 1005.05 1005.32 1005.72 1006.19 1006.50 1006.56 1006.99
1035.19 1035.82 1035.67 1033.79 1031.93 1030.67 1029.54 1029.71 1030.72 1031.73 1031.29 1031.10 1030.72 1029.68 1028.60 1028.00 1025.80 1023.88 1022.60 1021.04 1018.97 1016.87 1014.79 1013.03 1011.23 1009.17 1007.41 1005.75 1004.30 1003.10 1002.03 1001.88 1002.01 1002.18 1002.54 1003.04 1003.49 1003.98 1004.24 1004.71 1005.37 1005.54 1005.73 1005.97
1035.09 1035.92 1035.81 1034.80 1033.11 1029.64 1028.72 1029.01 1029.91 1031.06 1029.41 1029.70 1029.76 1029.04 1028.39 1027.23 1025.34 1022.75 1021.69 1020.95 1018.98 1016.67 1014.60 1012.83 1011.01 1008.89 1006.67 1004.49 1002.55 1001.35 1000.45 1000.48 1000.97 1001.16 1001.46 1001.93 1002.61 1002.91 1003.00 1003.65 1004.15 1004.35 1004.79 1005.00
1035.04 1035.68 1036.17 1034.81 1033.89 1030.41 1027.51 1027.62 1028.35 1029.72 1029.57 1028.71 1028.73 1028.59 1027.67 1026.43 1024.15 1021.02 1020.20 1019.20 1017.29 1015.62 1013.90 1011.97 1009.83 1008.02 1005.97 1003.36 1000.97 998.96 998.95 999.58 1000.03 1000.28 1000.51 1001.14 1001.77 1001.87 1002.41 1002.97 1003.41 1003.82 1004.27 1004.39
1035.24 1035.69 1035.26 1034.25 1032.77 1028.53 1026.78 1027.01 1027.52 1028.76 1028.12 1027.77 1028.15 1028.21 1028.27 1028.01 1026.73 1023.09 1021.23 1019.32 1017.93 1015.97 1013.61 1011.30 1009.55 1007.88 1005.71 1003.33 1000.99 998.78 998.49 998.88 999.45 1000.02 1000.29 1000.62 1001.24 1001.35 1002.10 1003.01 1003.14 1003.15 1003.53 1004.02
1033.59 1034.21 1033.66 1033.07 1031.34 1027.81 1025.88 1026.24 1027.21 1026.67 1026.55 1027.31 1027.63 1027.87 1027.61 1027.14 1025.16 1022.90 1021.34 1019.61 1017.73 1015.03 1012.47 1011.12 1009.24 1007.53 1005.46 1003.34 1001.25 999.91 998.88 998.72 999.08 999.26 999.87 1000.29 1000.69 1001.14 1001.75 1002.64 1002.96 1002.95 1003.02 1003.58
1032.91 1031.87 1031.65 1030.45 1027.38 1025.64 1025.63 1025.32 1025.72 1026.08 1026.51 1026.71 1027.29 1027.16 1027.07 1026.50 1025.07 1022.78 1021.01 1019.64 1018.20 1015.73 1013.23 1011.52 1009.77 1007.86 1005.85 1003.58 1001.73 1000.15 998.86 998.16 998.46 999.08 999.46 1000.02 1000.34 1000.98 1001.34 1001.84 1002.43 1002.21 1002.55 1003.01
1031.59 1031.28 1031.15 1029.92 1025.85 1025.54 1025.22 1025.11 1025.49 1026.03 1026.61 1026.65 1026.87 1026.87 1026.73 1026.11 1025.21 1023.07 1021.13 1019.98 1018.46 1016.27 1013.52 1011.81 1009.52 1007.28 1005.36 1004.00 1002.61 1001.40 999.70 998.65 998.22 998.77 999.35 999.73 1000.24 1000.65 1001.26 1001.37 1001.72 1001.67 1001.65 1002.60
1030.60 1030.84 1029.76 1028.48 1025.94 1025.43 1025.26 1025.64 1026.11 1026.20 1026.55 1026.84 1026.54 1026.88 1026.91 1026.51 1025.67 1023.79 1021.57 1020.42 1018.83 1017.34 1014.53 1012.18 1011.23 1009.05 1006.86 1004.28 1002.67 1001.82 1000.33 999.55 999.47 999.61 999.74 1000.03 1000.22 1000.43 1000.77 1000.80 1001.01 1000.68 1001.46 1001.92
1028.78 1027.87 1027.95 1026.39 1025.29 1025.61 1026.02 1026.15 1026.39 1026.69 1026.95 1027.09 1027.00 1026.78 1026.60 1026.19 1025.30 1024.06 1021.86 1020.86 1019.34 1017.91 1015.93 1013.19 1011.45 1009.36 1007.63 1006.06 1004.38 1002.99 1001.66 1000.45 999.83 999.80 1000.18 999.96 1000.05 1000.21 1000.53 1000.57 1000.78 1001.11 1001.98 1002.45
Wind_Speed
4 9 8 9 7 6 11 12 18 18 12 14 12 22 19 11 9 5 6 6 1 6 6 7 10 12 11 10 12 8 8 8 7 6 5 5 3 7 8 7 13 11 9 10
2 7 7 8 9 8 13 16 11 10 18 20 12 23 17 12 6 8 6 3 6 7 6 7 10 12 11 9 10 11 9 9 8 7 5 5 4 3 6 8 9 11 12 9
6 4 8 8 7 15 14 7 10 16 24 15 8 9 3 7 6 6 5 1 6 5 9 11 14 13 12 10 10 11 11 11 8 8 7 7 6 4 6 7 7 7 10 7
4 6 8 10 8 12 8 10 17 21 13 4 7 6 4 11 7 8 9 5 6 7 9 12 15 14 14 14 13 12 10 10 10 8 8 8 8 9 6 7 7 9 9 11
1 6 6 9 8 11 9 24 22 19 7 5 2 3 8 11 7 7 7 7 7 12 14 15 16 17 16 13 13 12 11 11 11 8 10 8 11 9 7 6 10 9 9 8
2 3 2 3 14 3 17 19 14 3 2 2 2 5 7 3 2 4 7 6 12 14 15 19 17 19 17 13 13 13 14 13 12 12 12 12 14 12 10 8 7 7 6 6
6 3 4 4 5 3 16 13 7 11 6 5 5 6 10 2 7 5 0 10 15 15 17 19 19 18 17 16 15 14 15 14 13 13 11 12 14 14 13 11 8 9 6 7
5 5 4 6 4 4 7 5 5 5 6 10 17 6 9 5 8 6 9 14 18 21 19 20 21 20 18 17 17 16 17 16 14 14 15 13 15 10 9 10 9 8 8 8
6 4 6 5 3 3 6 5 2 4 9 5 6 7 6 9 5 8 13 23 24 25 24 24 22 19 19 18 19 17 18 17 16 15 14 15 14 14 12 12 10 9 10 9
2 7 2 4 4 3 5 3 5 3 6 8 6 8 6 7 8 8 20 23 26 25 25 24 21 21 19 19 18 18 16 16 17 17 16 15 15 15 13 12 14 13 12 13
2 3 4 4 2 5 0 3 3 2 2 3 8 8 5 5 2 18 24 26 26 28 28 25 22 21 20 20 18 18 15 18 18 17 16 16 15 15 14 14 14 13 13 13
2 1 6 3 1 1 0 3 5 4 7 4 3 12 8 5 20 23 28 28 29 28 29 27 25 23 21 18 17 20 18 18 17 17 17 16 16 15 15 15 15 13 15 13
2 2 7 4 3 1 4 6 4 1 0 8 2 11 5 23 23 24 27 30 30 33 32 27 24 21 20 21 19 18 17 18 17 17 17 17 17 17 17 16 14 14 15 13
2 4 7 8 10 1 7 3 6 7 4 6 14 30 27 27 28 29 31 32 32 30 30 29 22 24 22 20 20 19 18 17 16 17 18 18 17 17 16 15 15 15 16 16
3 5 8 15 20 14 15 16 7 11 16 5 22 19 27 28 25 29 33 34 34 33 31 29 29 26 24 22 20 17 16 16 16 17 18 18 15 15 15 16 15 14 16 15
4 6 6 9 8 7 8 11 10 12 13 16 21 26 21 15 23 27 29 32 33 32 34 34 30 29 25 23 19 16 15 15 15 17 17 16 16 16 16 16 16 16 16 16
3 3 5 8 7 12 7 10 8 4 6 7 13 22 18 19 25 28 32 31 29 35 35 33 30 27 25 23 22 19 15 14 15 16 16 16 16 16 17 16 15 17 16 16
2 4 3 8 11 6 6 2 6 11 12 13 15 16 12 15 23 28 27 20 33 35 34 31 27 27 27 26 22 18 15 13 13 15 15 16 16 16 16 16 16 17 15 16
5 3 4 3 3 12 2 4 2 3 18 5 7 8 14 17 24 20 15 27 31 31 30 27 25 26 27 25 21 17 13 12 13 16 15 14 15 16 15 16 16 14 14 14
4 5 2 4 3 7 5 5 5 7 7 6 1 13 18 22 18 18 32 33 34 33 29 28 28 26 24 23 22 15 11 13 15 15 14 13 14 13 14 13 16 13 14 13
2 3 6 7 6 10 4 3 3 6 10 12 5 6 12 13 14 30 31 31 30 29 31 30 26 23 24 21 19 4 10 12 13 12 12 13 14 12 12 11 12 11 13 14
8 7 5 3 4 11 4 3 4 7 7 5 5 6 6 14 22 26 27 29 31 34 33 29 26 25 23 20 16 12 3 6 11 12 11 9 9 10 10 15 14 12 12 10
4 8 5 9 8 2 7 8 5 4 5 4 3 5 6 14 20 27 26 28 27 30 28 26 24 24 21 20 19 18 14 8 12 12 11 11 9 10 11 14 13 11 14 10
5 4 4 4 4 5 4 4 1 3 5 8 2 4 10 13 18 25 24 23 23 26 27 25 28 27 26 21 19 17 15 12 4 8 7 8 10 10 9 9 11 11 12 11
5 7 7 8 13 12 4 1 4 7 7 8 13 8 10 13 17 21 23 21 22 21 25 24 22 22 25 25 23 20 18 12 5 6 6 3 2 7 8 7 11 11 12 13
9 10 9 9 3 4 1 3 5 4 5 6 5 11 11 9 14 18 22 20 19 21 22 24 24 24 24 22 23 23 21 16 10 5 2 3 5 6 9 9 7 11 11 11
Wind_Direction
11 55 24 354 1 313 280 298 304 297 326 350 303 289 281 261 145 193 205 224 351 16 335 326 352 350 340 334 322 314 316 311 318 314 314 314 310 317 322 322 313 316 316 346
62 65 357 327 312 342 324 313 304 295 341 315 302 289 277 257 169 172 217 55 24 312 293 312 347 342 332 320 320 319 313 311 310 301 297 294 288 253 265 256 264 289 298 304
55 9 330 325 345 353 326 295 327 304 317 300 339 282 153 123 128 127 78 205 251 318 337 326 341 333 326 322 314 307 304 295 293 292 292 291 290 277 268 277 291 278 259 295
67 10 350 338 11 352 308 348 311 303 320 294 24 285 263 159 172 183 202 173 31 345 321 337 330 332 325 313 310 298 294 292 290 283 287 283 280 279 278 291 305 281 294 302
317 14 351 349 336 327 280 313 300 283 272 36 214 81 275 148 186 159 116 65 23 347 337 332 323 325 315 314 305 301 297 285 280 273 274 270 270 269 266 253 257 268 268 283
240 110 58 331 298 11 329 315 313 80 166 356 253 104 281 197 148 61 64 42 1 348 330 322 318 319 312 308 302 298 290 281 274 269 264 260 262 265 266 264 262 268 265 260
303 101 124 324 316 304 352 345 348 3 356 249 207 306 240 73 118 105 303 359 349 329 331 318 315 313 306 303 299 295 288 287 282 271 259 258 256 254 257 260 261 259 242 237
344 326 33 358 117 221 312 71 113 291 320 295 289 230 262 178 127 134 11 342 331 335 324 314 314 309 303 302 298 288 285 280 275 274 269 262 254 251 246 245 246 260 258 251
353 279 130 79 62 52 322 33 282 261 252 270 251 287 25 30 29 2 342 333 327 323 318 314 310 304 302 299 292 287 279 276 267 264 262 259 256 243 242 242 237 237 249 249
69 300 77 141 148 176 117 282 40 335 329 302 278 308 241 340 330 345 324 320 316 313 311 310 307 304 298 292 287 278 273 271 268 261 255 250 249 246 241 239 234 230 237 240
100 126 281 254 175 168 10 348 1 159 164 229 301 270 209 280 345 325 325 318 315 312 314 311 306 301 297 293 287 285 274 270 262 255 250 246 243 239 234 238 234 226 237 233
86 288 280 293 329 27 337 218 138 127 283 254 187 270 277 227 337 334 317 314 314 312 310 308 307 305 303 298 287 282 276 267 259 252 246 242 238 235 229 231 227 222 233 224
178 243 307 313 359 336 216 204 180 159 204 222 172 263 280 323 322 315 310 315 315 314 311 309 309 304 306 298 291 281 273 265 256 248 241 235 231 232 223 227 223 216 227 218
145 265 199 216 242 9 293 201 183 157 232 234 235 288 301 311 315 314 315 314 313 308 310 308 309 311 304 298 291 281 271 261 249 240 237 232 227 232 218 217 221 209 220 209
157 259 252 261 268 272 274 274 236 198 235 212 280 287 291 302 310 314 312 310 312 311 310 316 316 311 309 303 293 278 265 257 243 235 231 229 226 229 218 212 215 211 217 207
118 276 331 281 260 206 246 242 229 238 258 260 268 274 280 300 305 305 308 311 310 308 317 316 314 313 312 307 296 288 270 255 238 227 226 221 218 218 221 206 204 206 208 205
188 303 333 272 308 299 290 229 201 235 218 214 282 281 307 306 304 308 313 309 309 315 313 315 316 313 313 307 304 292 272 250 233 220 217 214 211 214 216 201 198 210 199 201
266 294 246 281 314 345 241 226 175 218 247 256 268 279 285 293 297 304 298 310 313 312 315 317 316 315 315 310 302 290 269 231 224 212 210 207 204 212 207 194 195 209 194 200
202 278 290 291 261 275 219 214 224 117 306 208 225 265 312 315 300 300 319 319 312 314 315 315 316 316 311 308 303 290 269 202 212 205 204 200 199 215 195 191 196 200 195 191
243 219 163 328 287 267 218 162 103 115 287 196 233 338 331 332 330 321 329 323 321 319 319 323 324 321 317 316 314 287 216 193 201 200 196 193 196 209 186 186 196 193 197 187
188 234 214 229 259 276 161 177 132 42 256 341 9 322 335 328 295 299 313 317 318 317 321 324 328 327 321 323 327 300 178 191 192 190 189 191 201 183 177 188 197 200 186 185
182 165 210 218 280 286 153 306 142 230 322 316 330 325 310 310 304 309 316 321 324 325 328 333 332 332 327 330 343 357 38 218 188 179 183 178 201 170 178 192 189 213 178 186
278 194 203 184 233 154 207 209 274 325 292 312 333 313 310 318 317 314 320 325 328 325 325 331 332 331 338 345 357 351 351 17 168 175 176 185 165 175 189 190 192 211 181 177
249 155 226 18 308 260 286 287 353 345 310 314 297 314 323 321 321 314 320 326 330 328 332 334 336 340 346 352 359 358 354 355 85 127 131 154 168 181 216 184 190 209 166 171
198 138 204 257 278 282 270 157 350 321 326 322 321 335 324 325 327 318 319 329 331 332 331 333 337 341 345 347 360 6 6 5 74 91 66 9 128 193 215 207 209 164 162 167
182 195 178 224 196 152 236 19 338 320 304 310 302 323 323 320 322 318 318 329 329 338 336 336 340 342 352 355 4 6 4 8 18 35 19 310 249 202 192 155 109 77 135 133